User: anonymous
Location: Clinton NY
(43.0598°N, 75.3602°W)
Time: 05:26:59
(UTC-04:00)
Language:

Iridium 11 - Orbit

View from above orbital plane
View from above orbital plane
View from above satellite
View from above satellite

Ground track
Ground track

The orbit data is extracted from the following two-line orbital elements,

1 25578U 98074B   14234.33817675  .00000262  00000-0  86351-4 0  9918
2 25578 086.3999 326.0935 0002414 107.9944 315.1037 14.34216367829798
Epoch (UTC): 22 August 2014 08:06:58
Eccentricity: 0.0002414
inclination: 86.3999°
perigee height: 776 km
apogee height: 779 km
right ascension of ascending node: 326.0935°
argument of perigee: 107.9944°
revolutions per day: 14.34216367
mean anomaly at epoch: 315.1037°
orbit number at epoch: 82979

The dashed part of the orbit path shows where the satellite is in the earth's shadow,  

DLR